DUBAISAT-1

Last updated on Mon Sep 07 2026 00:02:45 GMT+0000 (Coordinated Universal Time)

1 35682U 09041B 26249.34842360 .00000497 00000+0 80979-4 0 9997 2 35682 98.0161 21.7725 0010717 163.4344 196.7218 14.75238896917066
UTC large
Height (km)
Speed (km/s)
/
Latitude / Longitude
Inclination (degrees)
Orbital Period (minutes)
Azimuth
Elevation
Range (km)
Doppler Factor

Next 0 passes for location: London (51.5072 / 0.1276)

No passes found over London.
DUBAISAT-1